When you browse on this site, cookies collect data to enhance your experience and personalize the content and advertising you see.
Visit our Privacy Policy to learn more. By continuing to use the site, you agree to this use of cookies and data.
  • In Spain
  • List of Countries
  • For 7 days
  • Water Temperature
  • Weather Map
  • Weather Widgets
  • user-avatar
    Login

    Hourly Weather Akkol'

    Today, 15 November, Friday

    Time Temperature Precipitation Wind Pressure Humidity
    00:00 -19°C° 0 mm 5 mps 739 mmHg 86%
    01:00 -20°C° 0 mm 5 mps 739 mmHg 85%
    02:00 -20°C° 0 mm 5 mps 740 mmHg 85%
    03:00 -21°C° 0 mm 5 mps 740 mmHg 85%
    04:00 -20°C° 0 mm 4 mps 741 mmHg 84%
    05:00 -22°C° 0 mm 4 mps 742 mmHg 84%
    06:00 -22°C° 0 mm 4 mps 742 mmHg 84%
    07:00 -21°C° 0 mm 3 mps 743 mmHg 84%
    08:00 -22°C° 0 mm 3 mps 743 mmHg 84%
    09:00 -19°C° 0 mm 3 mps 744 mmHg 82%
    10:00 -18°C° 0 mm 3 mps 744 mmHg 80%
    11:00 -16°C° 0 mm 2 mps 745 mmHg 78%
    12:00 -15°C° 0 mm 2 mps 745 mmHg 78%
    13:00 -13°C° 0 mm 1 mps 745 mmHg 79%
    14:00 -13°C° 0 mm 1 mps 745 mmHg 80%
    15:00 -14°C° 0 mm 1 mps 745 mmHg 77%
    16:00 -15°C° 0 mm 0 mps 746 mmHg 75%
    17:00 -16°C° 0 mm 0 mps 746 mmHg 73%
    18:00 -16°C° 0 mm 0 mps 746 mmHg 72%
    19:00 -16°C° 0 mm 1 mps 746 mmHg 71%
    20:00 -16°C° 0 mm 1 mps 746 mmHg 71%
    21:00 -19°C° 0 mm 2 mps 746 mmHg 71%
    22:00 -19°C° 0 mm 2 mps 746 mmHg 71%
    23:00 -19°C° 0 mm 2 mps 747 mmHg 71%

    Tomorrow, 16 November, Saturday

    Time Temperature Precipitation Wind Pressure Humidity
    00:00 -21°C° 0 mm 3 mps 746 mmHg 71%
    01:00 -21°C° 0 mm 3 mps 746 mmHg 72%
    02:00 -21°C° 0 mm 3 mps 746 mmHg 72%
    03:00 -21°C° 0 mm 3 mps 746 mmHg 73%
    04:00 -22°C° 0 mm 4 mps 746 mmHg 74%
    05:00 -20°C° 0 mm 4 mps 746 mmHg 75%
    06:00 -20°C° 0 mm 4 mps 745 mmHg 75%
    07:00 -20°C° 0 mm 4 mps 745 mmHg 75%
    08:00 -19°C° 0 mm 4 mps 744 mmHg 76%
    09:00 -19°C° 0 mm 5 mps 744 mmHg 74%
    10:00 -17°C° 0 mm 6 mps 744 mmHg 72%
    11:00 -16°C° 0 mm 6 mps 744 mmHg 70%
    12:00 -15°C° 0 mm 7 mps 743 mmHg 70%
    13:00 -15°C° 0 mm 7 mps 743 mmHg 71%
    14:00 -14°C° 0 mm 7 mps 742 mmHg 71%
    15:00 -14°C° 0 mm 7 mps 741 mmHg 72%
    16:00 -14°C° 0 mm 7 mps 741 mmHg 72%
    17:00 -14°C° 0 mm 7 mps 740 mmHg 73%
    18:00 -14°C° 0 mm 7 mps 740 mmHg 73%
    19:00 -14°C° 0 mm 7 mps 740 mmHg 73%
    20:00 -14°C° 0 mm 7 mps 740 mmHg 73%
    21:00 -14°C° 0 mm 6 mps 739 mmHg 77%
    22:00 -15°C° 0 mm 6 mps 739 mmHg 82%
    23:00 -15°C° 0 mm 6 mps 739 mmHg 86%

    Day after tomorrow, 17 November, Sunday

    Time Temperature Precipitation Wind Pressure Humidity
    00:00 -13°C° 0 mm 5 mps 739 mmHg 88%
    01:00 -13°C° 0 mm 5 mps 739 mmHg 90%
    02:00 -12°C° 0 mm 5 mps 739 mmHg 92%
    03:00 -12°C° 0 mm 5 mps 739 mmHg 93%
    04:00 -11°C° 0 mm 5 mps 739 mmHg 93%
    05:00 -11°C° 0 mm 5 mps 738 mmHg 94%
    06:00 -11°C° 0 mm 5 mps 738 mmHg 94%
    07:00 -10°C° 0 mm 5 mps 738 mmHg 94%
    08:00 -10°C° 0 mm 5 mps 738 mmHg 94%
    09:00 -10°C° 0 mm 5 mps 737 mmHg 93%
    10:00 -9°C° 0 mm 6 mps 737 mmHg 92%
    11:00 -9°C° 0 mm 6 mps 737 mmHg 91%
    12:00 -9°C° 0 mm 6 mps 737 mmHg 90%
    13:00 -9°C° 0 mm 6 mps 736 mmHg 89%
    14:00 -8°C° 0 mm 7 mps 736 mmHg 87%
    15:00 -9°C° 0 mm 7 mps 735 mmHg 87%
    16:00 -9°C° 0 mm 7 mps 734 mmHg 87%
    17:00 -9°C° 0 mm 7 mps 734 mmHg 88%
    18:00 -11°C° 0 mm 7 mps 733 mmHg 89%
    19:00 -10°C° 0 mm 6 mps 733 mmHg 90%
    20:00 -10°C° 0 mm 6 mps 733 mmHg 91%
    21:00 -10°C° 0 mm 6 mps 732 mmHg 92%
    22:00 -10°C° 0 mm 6 mps 732 mmHg 93%
    23:00 -10°C° 0 mm 6 mps 732 mmHg 94%

    18 November, Monday

    Time Temperature Precipitation Wind Pressure Humidity
    00:00 -10°C° 0 mm 6 mps 732 mmHg 94%
    01:00 -10°C° 0 mm 5 mps 731 mmHg 95%
    02:00 -8°C° 0 mm 5 mps 731 mmHg 95%
    03:00 -8°C° 0 mm 5 mps 731 mmHg 95%
    04:00 -10°C° 0 mm 5 mps 730 mmHg 95%
    05:00 -9°C° 0 mm 4 mps 730 mmHg 95%
    06:00 -9°C° 0 mm 4 mps 730 mmHg 95%
    07:00 -9°C° 0 mm 4 mps 731 mmHg 95%
    08:00 -9°C° 0 mm 4 mps 731 mmHg 95%
    09:00 -8°C° 0 mm 3 mps 731 mmHg 95%
    10:00 -8°C° 0 mm 3 mps 731 mmHg 95%
    11:00 -7°C° 0 mm 3 mps 731 mmHg 94%
    12:00 -7°C° 0 mm 3 mps 731 mmHg 94%
    13:00 -7°C° 0 mm 3 mps 731 mmHg 95%
    14:00 -8°C° 0 mm 4 mps 730 mmHg 95%
    15:00 -7°C° 0 mm 3 mps 730 mmHg 95%
    16:00 -8°C° 0 mm 3 mps 730 mmHg 95%
    17:00 -8°C° 0 mm 3 mps 729 mmHg 95%
    18:00 -9°C° 0.1 mm 4 mps 729 mmHg 95%
    19:00 -9°C° 0.1 mm 4 mps 728 mmHg 95%
    20:00 -8°C° 0.1 mm 5 mps 728 mmHg 95%
    21:00 -8°C° 0.2 mm 5 mps 727 mmHg 95%
    22:00 -8°C° 0.2 mm 5 mps 727 mmHg 95%
    23:00 -8°C° 0.2 mm 5 mps 726 mmHg 95%

    19 November, Tuesday

    Time Temperature Precipitation Wind Pressure Humidity
    00:00 -8°C° 0.3 mm 5 mps 725 mmHg 95%
    01:00 -8°C° 0.3 mm 5 mps 725 mmHg 95%
    02:00 -8°C° 0.3 mm 4 mps 724 mmHg 95%
    03:00 -7°C° 0.4 mm 3 mps 723 mmHg 96%
    04:00 -7°C° 0.4 mm 3 mps 723 mmHg 96%
    05:00 -6°C° 0.4 mm 2 mps 722 mmHg 96%
    06:00 -6°C° 0.5 mm 2 mps 722 mmHg 97%
    07:00 -4°C° 0.5 mm 1 mps 722 mmHg 97%
    08:00 -4°C° 0.5 mm 1 mps 722 mmHg 97%
    09:00 -8°C° 0.3 mm 3 mps 722 mmHg 96%
    10:00 -10°C° 0.3 mm 4 mps 722 mmHg 95%
    11:00 -12°C° 0.3 mm 6 mps 722 mmHg 94%
    12:00 -15°C° 0.3 mm 6 mps 722 mmHg 94%
    13:00 -16°C° 0.3 mm 6 mps 722 mmHg 94%
    14:00 -19°C° 0.3 mm 7 mps 722 mmHg 94%
    15:00 -19°C° 0.3 mm 7 mps 722 mmHg 94%
    16:00 -20°C° 0.3 mm 6 mps 722 mmHg 94%
    17:00 -21°C° 0.3 mm 6 mps 723 mmHg 94%
    18:00 -22°C° 0.2 mm 6 mps 723 mmHg 94%
    19:00 -23°C° 0.2 mm 6 mps 723 mmHg 94%
    20:00 -23°C° 0.2 mm 6 mps 724 mmHg 94%
    21:00 -24°C° 0.1 mm 6 mps 724 mmHg 94%
    22:00 -24°C° 0.1 mm 6 mps 724 mmHg 94%
    23:00 -26°C° 0.1 mm 6 mps 724 mmHg 94%

    20 November, Wednesday

    Time Temperature Precipitation Wind Pressure Humidity
    00:00 -26°C° 0.1 mm 6 mps 724 mmHg 94%
    01:00 -27°C° 0.1 mm 6 mps 724 mmHg 95%
    02:00 -27°C° 0.1 mm 6 mps 724 mmHg 95%
    03:00 -27°C° 0.1 mm 6 mps 724 mmHg 95%
    04:00 -28°C° 0.1 mm 6 mps 724 mmHg 96%
    05:00 -29°C° 0.1 mm 7 mps 724 mmHg 96%
    06:00 -30°C° 0.2 mm 7 mps 724 mmHg 97%
    07:00 -30°C° 0.2 mm 7 mps 724 mmHg 97%
    08:00 -30°C° 0.2 mm 7 mps 723 mmHg 97%
    09:00 -30°C° 0.3 mm 7 mps 723 mmHg 97%
    10:00 -30°C° 0.3 mm 8 mps 723 mmHg 97%
    11:00 -29°C° 0.3 mm 8 mps 723 mmHg 97%
    12:00 -29°C° 0.4 mm 8 mps 723 mmHg 97%
    13:00 -28°C° 0.4 mm 8 mps 723 mmHg 97%
    14:00 -28°C° 0.4 mm 8 mps 723 mmHg 96%
    15:00 -27°C° 0.5 mm 7 mps 723 mmHg 96%
    16:00 -27°C° 0.5 mm 7 mps 724 mmHg 96%
    17:00 -26°C° 0.5 mm 6 mps 724 mmHg 96%
    18:00 -26°C° 0.3 mm 6 mps 725 mmHg 96%
    19:00 -26°C° 0.3 mm 6 mps 725 mmHg 96%
    20:00 -26°C° 0.3 mm 6 mps 725 mmHg 96%
    21:00 -25°C° 0.2 mm 5 mps 726 mmHg 96%
    22:00 -25°C° 0.2 mm 5 mps 726 mmHg 96%
    23:00 -24°C° 0.2 mm 4 mps 726 mmHg 97%
    Show more